Baltimore, MD

3:04 PM EDT on September 17, 2019 (GMT -0400)
Baltimore-Washington International

Weather History for KBWI - August, 2019

Change the Weather History Date:

Sunday, August 25, 2019

  Actual Average Record
Temperature  
Mean Temperature 70 °F 74 °F  
Max Temperature 80 °F 84 °F 97 °F (1968)
Min Temperature 60 °F 64 °F 51 °F (1952)
Degree Days  
Heating Degree Days 0 0  
Month to date heating degree days 0 0  
Since 1 June heating degree days 4 15  
Since 1 July heating degree days 0 0  
Cooling Degree Days 5 9  
Month to date cooling degree days 359 264  
Year to date cooling degree days 1372 958  
Since 1 June cooling degree days 1178 874  
Growing Degree Days 20 (Base 50)    
Moisture  
Dew Point 57 °F    
Average Humidity 64    
Maximum Humidity 97    
Minimum Humidity 44    
Precipitation  
Precipitation 0.00 in 0.11 in 3.05 in (1911)
Month to date precipitation 2.39 2.70  
Year to date precipitation 27.09 27.26  
Snow  
Snow 0.00 in 0.00 in - ()
Month to date snowfall 0.0 0.0  
Since 1 July snowfall 0.0 0.0  
Snow Depth 0.00 in    
Sea Level Pressure  
Sea Level Pressure 30.19 in    
Wind  
Wind Speed 6 mph ()    
Max Wind Speed 20 mph    
Max Gust Speed 24 mph    
Visibility 10.0 miles    
Events      
T = Trace of Precipitation, MM = Missing Value Source: Averaged Metar Reports

Daily Weather History Graph

Daily Weather History Graph

Search for Another Location

Airport or City:

Astronomy

Aug. 25, 2019 Rise Set
Actual Time 6:28 AM EDT 7:48 PM EDT
Civil Twilight 6:00 AM EDT 8:16 PM EDT
Nautical Twilight 5:27 AM EDT 8:49 PM EDT
Astronomical Twilight 4:52 AM EDT 9:24 PM EDT
Moon 1:03 AM EDT (8/25) 4:05 PM EDT (8/25)
Length of Visible Light 14h 15m
Length of Day
13h 19m
Waning Crescent, 29% of the Moon is Illuminated
Aug 25
Waning Crescent
Aug 30
New
Sep 5
First Quarter
Sep 14
Full
Sep 21
Last Quarter

Hourly Weather History & Observations

Time (EDT) Temp. Dew Point Humidity Pressure Visibility Wind Dir Wind Speed Gust Speed Precip Events Conditions
12:54 AM 63.0 °F 57.9 °F 84% 30.21 in 10.0 mi SSE 4.6 mph - N/A   Mostly Cloudy
1:54 AM 62.1 °F 57.0 °F 84% 30.20 in 10.0 mi Calm Calm - N/A   Scattered Clouds
2:54 AM 62.1 °F 57.9 °F 86% 30.19 in 10.0 mi Calm Calm - N/A   Mostly Cloudy
3:54 AM 62.1 °F 57.9 °F 86% 30.19 in 10.0 mi Calm Calm - N/A   Mostly Cloudy
4:54 AM 61.0 °F 59.0 °F 93% 30.19 in 10.0 mi West 3.5 mph - N/A   Mostly Cloudy
5:54 AM 62.1 °F 57.0 °F 84% 30.19 in 10.0 mi North 3.5 mph - N/A   Scattered Clouds
6:54 AM 64.9 °F 55.9 °F 73% 30.21 in 10.0 mi NNE 5.8 mph - N/A   Partly Cloudy
7:54 AM 64.9 °F 55.9 °F 73% 30.22 in 10.0 mi North 6.9 mph - N/A   Scattered Clouds
8:54 AM 69.1 °F 57.9 °F 68% 30.23 in 10.0 mi NNE 9.2 mph - N/A   Mostly Cloudy
9:54 AM 73.0 °F 57.0 °F 57% 30.22 in 10.0 mi ENE 16.1 mph - N/A   Partly Cloudy
10:54 AM 75.0 °F 55.9 °F 51% 30.23 in 10.0 mi NE 15.0 mph 21.9 mph N/A   Scattered Clouds
11:54 AM 75.9 °F 55.9 °F 50% 30.21 in 10.0 mi ENE 13.8 mph 21.9 mph N/A   Scattered Clouds
12:54 PM 77.0 °F 57.0 °F 50% 30.20 in 10.0 mi East 11.5 mph 19.6 mph N/A   Mostly Cloudy
1:54 PM 78.1 °F 55.9 °F 46% 30.19 in 10.0 mi NE 15.0 mph - N/A   Mostly Cloudy
2:54 PM 79.0 °F 55.0 °F 44% 30.18 in 10.0 mi ENE 11.5 mph 19.6 mph N/A   Mostly Cloudy
3:54 PM 79.0 °F 55.0 °F 44% 30.17 in 10.0 mi ENE 11.5 mph 21.9 mph N/A   Mostly Cloudy
4:54 PM 78.1 °F 55.9 °F 46% 30.17 in 10.0 mi East 13.8 mph - N/A   Mostly Cloudy
5:54 PM 75.9 °F 55.9 °F 50% 30.17 in 10.0 mi ENE 13.8 mph - N/A   Mostly Cloudy
6:54 PM 75.9 °F 55.9 °F 50% 30.17 in 10.0 mi East 12.7 mph - N/A   Mostly Cloudy
7:54 PM 73.0 °F 57.0 °F 57% 30.16 in 10.0 mi East 12.7 mph - N/A   Mostly Cloudy
8:54 PM 70.0 °F 57.0 °F 63% 30.17 in 10.0 mi East 9.2 mph - N/A   Scattered Clouds
9:54 PM 71.1 °F 57.0 °F 61% 30.18 in 10.0 mi East 10.4 mph - N/A   Scattered Clouds
10:54 PM 69.1 °F 57.0 °F 65% 30.19 in 10.0 mi East 8.1 mph - N/A   Scattered Clouds
11:54 PM 69.1 °F 57.9 °F 68% 30.19 in 10.0 mi ENE 11.5 mph - N/A   Scattered Clouds